Alcoa, TN

5:06 PM EDT on September 28, 2016 (GMT -0400)
McGhee Tyson

Weather History for KTYS - February, 2013

Change the Weather History Date:

Wednesday, February 27, 2013

  Actual Average Record
Temperature  
Mean Temperature 44 °F 46 °F  
Max Temperature 49 °F 56 °F 77 °F (1996)
Min Temperature 39 °F 35 °F 9 °F (1934)
Degree Days  
Heating Degree Days 21 19  
Month to date heating degree days 616 615  
Since 1 July heating degree days 2664 2877  
Cooling Degree Days 0 0  
Month to date cooling degree days 0 0  
Year to date cooling degree days 2 0  
Moisture  
Dew Point 33 °F    
Average Humidity 71    
Maximum Humidity 85    
Minimum Humidity 56    
Precipitation  
Precipitation 0.02 in 0.15 in 1.60 in (1913)
Month to date precipitation 2.41 4.11  
Year to date precipitation 15.08 8.43  
Snow  
Snow 0.00 in 0.10 in - ()
Month to date snowfall 1.2 1.6  
Since 1 July snowfall 2.6 5.1  
Snow Depth 0.00 in    
Sea Level Pressure  
Sea Level Pressure 29.81 in    
Wind  
Wind Speed 14 mph (WSW)    
Max Wind Speed 24 mph    
Max Gust Speed 26 mph    
Visibility 10 miles    
Events Rain    
T = Trace of Precipitation, MM = Missing Value Source: NWS Daily Summary

Daily Weather History Graph

Daily Weather History Graph

Search for Another Location

Airport or City:

Trip Planner

Search our weather history database for the weather conditions in past years. The results will help you decide how hot, cold, wet, or windy it might be!

Date:

Astronomy

Feb. 27, 2013 Rise Set
Actual Time 7:08 AM EST 6:29 PM EST
Civil Twilight 6:42 AM EST 6:55 PM EST
Nautical Twilight 6:12 AM EST 7:24 PM EST
Astronomical Twilight 5:43 AM EST 7:54 PM EST
Moon 8:43 PM EST (2/27) 7:48 AM EST (2/27)
Length of Visible Light 12h 12m
Length of Day
11h 21m
Waning Gibbous, 96% of the Moon is Illuminated
Feb 27
Waning Gibbous
Mar 4
Last Quarter
Mar 11
New
Mar 19
First Quarter
Mar 27
Full

Hourly Weather History & Observations

Time (EST) Temp. Windchill Dew Point Humidity Pressure Visibility Wind Dir Wind Speed Gust Speed Precip Events Conditions
12:10 AM 39.2 °F 30.8 °F 35.6 °F 87% 29.70 in 10.0 mi SW 15.0 mph 23.0 mph 0.00 in Rain Light Rain
12:53 AM 39.9 °F 31.8 °F 34.0 °F 79% 29.71 in 10.0 mi SW 15.0 mph - 0.00 in   Overcast
1:53 AM 39.9 °F 31.8 °F 35.1 °F 83% 29.73 in 10.0 mi SW 15.0 mph - N/A   Overcast
2:53 AM 39.9 °F 31.8 °F 34.0 °F 79% 29.74 in 7.0 mi SW 15.0 mph 24.2 mph 0.00 in Rain Light Rain
3:53 AM 39.9 °F 31.4 °F 33.1 °F 77% 29.75 in 10.0 mi SW 16.1 mph 25.3 mph 0.00 in   Overcast
4:53 AM 39.0 °F 30.3 °F 33.1 °F 79% 29.77 in 10.0 mi SW 16.1 mph - N/A   Overcast
5:53 AM 39.0 °F 30.3 °F 33.1 °F 79% 29.79 in 10.0 mi SW 16.1 mph - N/A   Overcast
6:53 AM 39.0 °F 30.3 °F 33.1 °F 79% 29.81 in 10.0 mi SW 16.1 mph - N/A   Overcast
7:10 AM 39.2 °F 31.2 °F 33.8 °F 81% 29.80 in 10.0 mi SW 13.8 mph - N/A   Overcast
7:53 AM 39.0 °F 32.3 °F 33.1 °F 79% 29.81 in 10.0 mi SSW 10.4 mph - N/A   Overcast
8:53 AM 39.9 °F 30.8 °F 32.0 °F 73% 29.84 in 10.0 mi SSW 18.4 mph - N/A   Overcast
9:53 AM 41.0 °F 33.1 °F 32.0 °F 70% 29.86 in 10.0 mi SW 15.0 mph - N/A   Overcast
10:03 AM 41.0 °F 32.5 °F 32.0 °F 70% 29.85 in 10.0 mi SW 17.3 mph - N/A   Overcast
10:53 AM 42.1 °F 34.5 °F 33.1 °F 70% 29.86 in 10.0 mi SW 15.0 mph - N/A   Overcast
11:53 AM 42.1 °F 33.6 °F 30.9 °F 65% 29.85 in 10.0 mi SW 18.4 mph 24.2 mph N/A   Overcast
12:50 PM 42.8 °F 34.5 °F 30.2 °F 61% 29.83 in 10.0 mi WSW 18.4 mph 25.3 mph N/A   Overcast
12:53 PM 43.0 °F 34.2 °F 30.9 °F 62% 29.84 in 10.0 mi WSW 20.7 mph 25.3 mph N/A   Overcast
1:53 PM 44.1 °F 36.2 °F 32.0 °F 63% 29.82 in 10.0 mi SW 18.4 mph 24.2 mph N/A   Overcast
2:53 PM 46.0 °F 39.3 °F 33.1 °F 61% 29.81 in 10.0 mi SW 16.1 mph 20.7 mph N/A   Mostly Cloudy
3:53 PM 46.0 °F 41.0 °F 32.0 °F 58% 29.79 in 10.0 mi SW 10.4 mph - N/A   Scattered Clouds
4:53 PM 48.0 °F - 33.1 °F 56% 29.79 in 10.0 mi West 9.2 mph - N/A   Mostly Cloudy
5:53 PM 46.9 °F - 33.1 °F 59% 29.79 in 10.0 mi West 8.1 mph - N/A   Overcast
6:53 PM 44.1 °F 39.5 °F 36.0 °F 73% 29.83 in 10.0 mi West 8.1 mph - 0.01 in Rain Light Rain
7:53 PM 44.1 °F 38.1 °F 35.1 °F 71% 29.84 in 10.0 mi West 11.5 mph - 0.01 in   Overcast
8:53 PM 41.0 °F 34.7 °F 33.1 °F 73% 29.85 in 10.0 mi West 10.4 mph - N/A   Overcast
9:53 PM 39.0 °F 32.8 °F 32.0 °F 76% 29.87 in 10.0 mi West 9.2 mph - N/A   Partly Cloudy
10:53 PM 39.9 °F 33.9 °F 30.9 °F 70% 29.87 in 10.0 mi West 9.2 mph - N/A   Overcast
11:53 PM 39.9 °F 32.9 °F 30.9 °F 70% 29.86 in 10.0 mi WSW 11.5 mph - N/A   Overcast